Location: Newark
(44.3681°N, 100.3364°W)
Time: 14:33:28
(UTC+00:00)

Vanguard 1 - Pass Details

Date: 27 February 2020
Orbit: 649 x 3833 km, 34.2° (Epoch: 07 April)

Event Time Altitude Azimuth Distance (km) Brightness Sun altitude
Rises 09:29:30 0° 173° (S) 7,288 14.3 -40.8°
Reaches altitude 10° 09:38:54 10° 151° (SSE) 6,736 14.2 -39.4°
Maximum altitude 09:47:44 14° 128° (SE) 6,602 14.4 -38.1°
Drops below altitude 10° 09:56:36 10° 105° (ESE) 6,868 14.8 -36.7°
Sets 10:06:05 0° 84° (E) 7,556 15.5 -35.2°
